Flag for Switzerland Weather past 2 weeks in Solothurn, Solothurn, Switzerland

Now
65 °F

Mild.


Feels Like: 65 °F
Forecast: 44 / 68 °F
Wind: 7 mph from East

Location: Grenchen

Current Time: Sep 3, 2015 at 1:48:21 PM

Latest Report: Sep 3, 2015 at 1:00 PM


Visibility: N/A

Pressure: 29.96 "Hg

Humidity: 65%

Dew point: 53 °F

Location of SolothurnLocation

Historic Weather in Solothurn — Graph

°F

Solothurn temperature yesterday

Maximum temperature yesterday: 71 °F (at 5:00 PM)
Minimum temperature yesterday: 58 °F (at 7:00 AM)
Average temperature yesterday: 65 °F

Past Weeks' High & Low Weather Summary

 TemperatureHumidityPressure
High90 °F (Aug 30, 4:00 PM)100% (Aug 26, 6:00 AM)30.27 "Hg (Aug 26, 6:00 AM)
Low47 °F (Aug 26, 6:00 AM)29% (Aug 30, 6:00 PM)29.73 "Hg (Aug 24, 7:00 AM)
Average66 °F71%30.03 "Hg
* Reported Aug 19 12:00 Noon — Sep 3 12:00 Noon, Solothurn, Weather by CustomWeather, © 2015

Note: Actual official high and low records may vary slightly from our data, if they occured in-between our weather recording intervals... More about our weather records

Advertising

Solothurn weather history for previous 24 hours

 ConditionsComfort  
Time TempWeatherWind HumidityBarometerVisibility
12:00 PM
Thu, Sep 3
65 °FMild.3 mph64%29.96 "HgN/A
11:00 AM63 °FMild.5 mph81%29.98 "HgN/A
10:00 AM61 °FCool.3 mph86%29.99 "HgN/A
9:00 AM59 °FCool.1 mph91%29.99 "HgN/A
8:00 AM58 °FCool.2 mph95%29.98 "HgN/A
7:00 AM56 °FCool.3 mph96%29.98 "HgN/A
6:00 AM56 °FCool.1 mph98%29.97 "HgN/A
5:00 AM56 °FCool.2 mph95%29.98 "HgN/A
4:00 AM59 °FCool.3 mph87%29.98 "HgN/A
3:00 AM58 °FCool.1 mph86%29.97 "HgN/A
2:00 AM60 °FCool.1 mph78%29.97 "HgN/A
1:00 AM61 °FCool.3 mph75%29.98 "HgN/A
12:00 AM62 °FCool.2 mph76%29.97 "HgN/A
10:00 PM
Wed, Sep 2
66 °FMild.5 mph59%29.97 "HgN/A
9:00 PM65 °FMild.2 mph59%29.96 "HgN/A
8:00 PM67 °FMild.5 mph54%29.95 "HgN/A
7:00 PM69 °FMild.8 mph51%29.95 "HgN/A
6:00 PM70 °FMild.7 mph50%29.94 "HgN/A
5:00 PM71 °FMild.3 mph47%29.94 "HgN/A
4:00 PM70 °FMild.3 mph49%29.94 "HgN/A
3:00 PM70 °FMild.9 mph52%29.96 "HgN/A
2:00 PM70 °FMild.8 mph54%29.96 "HgN/A
1:00 PM70 °FMild.9 mph52%29.96 "HgN/A
Weather by CustomWeather, © 2015

See weather overviewHow to use our weather pages